| time (UTC) | temp F | wind direction | speed knots | gust knots | rain 1hr in | rain 24hr in | rain mn in | humidity % | barometer mb |
| 20260508004548 | 43 | 324 | 4.3 | 9.6 | 0.00 | 0.00 | 0.00 | 66 | 1006.5 |
| 20260508004043 | 43 | 324 | 5.2 | 9.6 | 0.00 | 0.00 | 0.00 | 68 | 1006.4 |
| 20260508003542 | 43 | 324 | 7.0 | 9.6 | 0.00 | 0.00 | 0.00 | 64 | 1006.3 |
| 20260508003101 | 43 | 324 | 5.2 | 7.8 | 0.00 | 0.00 | 0.00 | 65 | 1006.3 |
| 20260508002543 | 43 | 324 | 4.3 | 6.1 | 0.00 | 0.00 | 0.00 | 65 | 1006.1 |
| 20260508002043 | 43 | 324 | 3.5 | 6.1 | 0.00 | 0.00 | 0.00 | 68 | 1006.2 |
| 20260508001553 | 43 | 324 | 4.3 | 8.7 | 0.00 | 0.00 | 0.00 | 65 | 1006.1 |
| 20260508001042 | 43 | 324 | 5.2 | 8.7 | 0.00 | 0.00 | 0.00 | 67 | 1006.2 |
| 20260508000543 | 43 | 324 | 5.2 | 9.6 | 0.00 | 0.00 | 0.00 | 64 | 1006.1 |
| 20260508000054 | 43 | 324 | 4.3 | 9.6 | 0.00 | 0.00 | 0.00 | 63 | 1006.1 |
| 20260507235543 | 44 | 324 | 4.3 | 9.6 | 0.00 | 0.00 | 0.00 | 67 | 1006.2 |
| 20260507235043 | 44 | 324 | 4.3 | 6.1 | 0.00 | 0.00 | 0.00 | 61 | 1006.1 |
| 20260507234549 | 44 | 324 | 2.6 | 7.8 | 0.00 | 0.00 | 0.00 | 60 | 1006.0 |
| 20260507234042 | 44 | 324 | 1.7 | 8.7 | 0.00 | 0.00 | 0.00 | 65 | 1006.2 |
| 20260507233543 | 44 | 324 | 5.2 | 8.7 | 0.00 | 0.00 | 0.00 | 63 | 1006.0 |
| 20260507233050 | 44 | 324 | 5.2 | 7.0 | 0.00 | 0.00 | 0.00 | 60 | 1005.9 |
| 20260507232541 | 44 | 324 | 3.5 | 8.7 | 0.00 | 0.00 | 0.00 | 65 | 1005.9 |
| 20260507232041 | 45 | 324 | 2.6 | 8.7 | 0.00 | 0.00 | 0.00 | 63 | 1005.9 |
| 20260507231550 | 45 | 324 | 2.6 | 7.8 | 0.00 | 0.00 | 0.00 | 58 | 1005.8 |
| 20260507231042 | 45 | 324 | 4.3 | 7.8 | 0.00 | 0.00 | 0.00 | 61 | 1005.8 |
| 20260507230544 | 44 | 324 | 2.6 | 7.0 | 0.00 | 0.00 | 0.00 | 60 | 1005.6 |
| 20260507230107 | 45 | 324 | 2.6 | 6.1 | 0.00 | 0.00 | 0.00 | 60 | 1005.6 |
| 20260507225541 | 45 | 324 | 2.6 | 5.2 | 0.00 | 0.00 | 0.00 | 58 | 1005.6 |
| 20260507225043 | 45 | 324 | 2.6 | 4.3 | 0.00 | 0.00 | 0.00 | 59 | 1005.6 |
| 20260507224550 | 45 | 324 | 1.7 | 7.0 | 0.00 | 0.00 | 0.00 | 61 | 1005.6 |
| 20260507224043 | 45 | 324 | 3.5 | 7.0 | 0.00 | 0.00 | 0.00 | 60 | 1005.5 |
| 20260507223543 | 45 | 324 | 2.6 | 6.1 | 0.00 | 0.00 | 0.00 | 57 | 1005.7 |
| 20260507223138 | 45 | 324 | 2.6 | 7.0 | 0.00 | 0.00 | 0.00 | 56 | 1005.5 |
| 20260507222543 | 46 | 324 | 2.6 | 7.0 | 0.00 | 0.00 | 0.00 | 56 | 1005.6 |
| 20260507222043 | 46 | 324 | 4.3 | 7.0 | 0.00 | 0.00 | 0.00 | 56 | 1005.6 |
| 20260507221548 | 47 | 324 | 4.3 | 6.1 | 0.00 | 0.00 | 0.00 | 53 | 1005.6 |
| 20260507221042 | 47 | 324 | 2.6 | 7.0 | 0.00 | 0.00 | 0.00 | 58 | 1005.5 |
| 20260507220541 | 47 | 324 | 3.5 | 7.0 | 0.00 | 0.00 | 0.00 | 56 | 1005.4 |
| 20260507220049 | 47 | 324 | 4.3 | 7.0 | 0.00 | 0.00 | 0.00 | 57 | 1005.4 |
| 20260507215543 | 47 | 324 | 2.6 | 6.1 | 0.00 | 0.00 | 0.00 | 58 | 1005.4 |
| 20260507215131 | 47 | 324 | 4.3 | 8.7 | 0.00 | 0.00 | 0.00 | 59 | 1005.5 |
| 20260507214556 | 46 | 324 | 4.3 | 8.7 | 0.00 | 0.00 | 0.00 | 57 | 1005.4 |
| 20260507214044 | 46 | 324 | 4.3 | 8.7 | 0.00 | 0.00 | 0.00 | 60 | 1005.4 |
| 20260507213541 | 47 | 324 | 3.5 | 7.0 | 0.00 | 0.00 | 0.00 | 56 | 1005.4 |
| 20260507213107 | 47 | 324 | 3.5 | 7.0 | 0.00 | 0.00 | 0.00 | 60 | 1005.3 |
| 20260507212543 | 46 | 324 | 3.5 | 7.0 | 0.00 | 0.00 | 0.00 | 63 | 1005.2 |
| 20260507212045 | 47 | 324 | 4.3 | 12.2 | 0.00 | 0.00 | 0.00 | 60 | 1005.1 |
| 20260507211549 | 46 | 324 | 7.8 | 12.2 | 0.00 | 0.00 | 0.00 | 60 | 1005.2 |
| 20260507211043 | 47 | 324 | 6.1 | 10.4 | 0.00 | 0.00 | 0.00 | 62 | 1005.0 |
| 20260507210547 | 46 | 324 | 4.3 | 9.6 | 0.00 | 0.00 | 0.00 | 57 | 1004.9 |
| 20260507210058 | 46 | 324 | 4.3 | 8.7 | 0.00 | 0.00 | 0.00 | 61 | 1004.9 |
| 20260507205544 | 47 | 324 | 4.3 | 10.4 | 0.00 | 0.00 | 0.00 | 63 | 1005.0 |
| 20260507205047 | 47 | 324 | 6.1 | 10.4 | 0.00 | 0.00 | 0.00 | 62 | 1004.9 |
| 20260507204551 | 47 | 324 | 7.0 | 10.4 | 0.00 | 0.00 | 0.00 | 61 | 1004.6 |
| 20260507204044 | 46 | 324 | 3.5 | 7.8 | 0.00 | 0.00 | 0.00 | 62 | 1004.6 |
| 20260507203544 | 46 | 324 | 4.3 | 7.8 | 0.00 | 0.00 | 0.00 | 64 | 1004.6 |
| 20260507203051 | 46 | 324 | 5.2 | 7.8 | 0.00 | 0.00 | 0.00 | 62 | 1004.4 |
| 20260507202545 | 46 | 324 | 3.5 | 8.7 | 0.00 | 0.00 | 0.00 | 64 | 1004.5 |
| 20260507202050 | 46 | 324 | 3.5 | 8.7 | 0.00 | 0.00 | 0.00 | 59 | 1004.5 |
| 20260507201604 | 46 | 324 | 6.1 | 8.7 | 0.00 | 0.00 | 0.00 | 62 | 1004.5 |
| 20260507201041 | 46 | 324 | 4.3 | 7.0 | 0.00 | 0.00 | 0.00 | 65 | 1004.6 |
| 20260507200545 | 46 | 324 | 3.5 | 6.1 | 0.00 | 0.00 | 0.00 | 64 | 1004.6 |
| 20260507200105 | 46 | 324 | 3.5 | 9.6 | 0.00 | 0.00 | 0.00 | 65 | 1004.6 |
| 20260507195543 | 46 | 324 | 6.1 | 9.6 | 0.00 | 0.00 | 0.00 | 62 | 1004.7 |
| 20260507195045 | 46 | 324 | 5.2 | 11.3 | 0.00 | 0.00 | 0.00 | 62 | 1004.5 |
| 20260507194549 | 47 | 324 | 3.5 | 11.3 | 0.00 | 0.00 | 0.00 | 66 | 1004.8 |
| 20260507194050 | 46 | 324 | 4.3 | 9.6 | 0.00 | 0.00 | 0.00 | 63 | 1004.7 |
| 20260507193545 | 46 | 324 | 2.6 | 7.8 | 0.00 | 0.00 | 0.00 | 64 | 1004.7 |
| 20260507193053 | 46 | 324 | 5.2 | 7.8 | 0.00 | 0.00 | 0.00 | 66 | 1004.6 |
| 20260507192545 | 46 | 324 | 5.2 | 7.8 | 0.00 | 0.00 | 0.00 | 66 | 1004.6 |
| 20260507192043 | 46 | 324 | 5.2 | 7.8 | 0.00 | 0.00 | 0.00 | 68 | 1004.7 |
| 20260507191550 | 46 | 324 | 3.5 | 7.0 | 0.00 | 0.00 | 0.00 | 65 | 1004.7 |
| 20260507191045 | 47 | 324 | 5.2 | 7.0 | 0.00 | 0.00 | 0.00 | 66 | 1004.5 |
| 20260507190544 | 46 | 324 | 3.5 | 7.8 | 0.00 | 0.00 | 0.00 | 70 | 1004.7 |
| 20260507190053 | 46 | 324 | 3.5 | 8.7 | 0.00 | 0.00 | 0.00 | 66 | 1004.5 |
| 20260507185544 | 46 | 324 | 5.2 | 8.7 | 0.00 | 0.00 | 0.00 | 68 | 1004.5 |
| 20260507185045 | 46 | 324 | 6.1 | 8.7 | 0.00 | 0.00 | 0.00 | 68 | 1004.5 |
| 20260507184551 | 47 | 324 | 6.1 | 7.8 | 0.00 | 0.00 | 0.00 | 68 | 1004.3 |
| 20260507184041 | 47 | 324 | 3.5 | 11.3 | 0.00 | 0.00 | 0.00 | 69 | 1004.3 |
| 20260507183540 | 47 | 324 | 6.1 | 11.3 | 0.00 | 0.00 | 0.00 | 67 | 1004.3 |
| 20260507183055 | 47 | 324 | 5.2 | 9.6 | 0.00 | 0.00 | 0.00 | 64 | 1004.2 |
| 20260507182541 | 48 | 324 | 6.1 | 9.6 | 0.00 | 0.00 | 0.00 | 60 | 1004.1 |
| 20260507182044 | 48 | 324 | 4.3 | 8.7 | 0.00 | 0.00 | 0.00 | 66 | 1004.2 |
| 20260507181554 | 47 | 324 | 5.2 | 8.7 | 0.00 | 0.00 | 0.00 | 66 | 1004.1 |
| 20260507181043 | 47 | 324 | 6.1 | 8.7 | 0.00 | 0.00 | 0.00 | 66 | 1004.4 |
| 20260507180542 | 47 | 324 | 6.1 | 9.6 | 0.00 | 0.00 | 0.00 | 67 | 1004.3 |
| 20260507180051 | 47 | 324 | 5.2 | 9.6 | 0.00 | 0.00 | 0.00 | 67 | 1004.2 |
| 20260507175541 | 48 | 324 | 6.1 | 9.6 | 0.00 | 0.00 | 0.00 | 67 | 1004.2 |
| 20260507175041 | 47 | 324 | 4.3 | 9.6 | 0.00 | 0.00 | 0.00 | 67 | 1004.2 |
| 20260507174556 | 48 | 324 | 6.1 | 9.6 | 0.00 | 0.00 | 0.00 | 67 | 1004.4 |
| 20260507174041 | 47 | 324 | 5.2 | 7.8 | 0.00 | 0.00 | 0.00 | 68 | 1004.4 |
| 20260507173541 | 47 | 324 | 3.5 | 6.1 | 0.00 | 0.00 | 0.00 | 71 | 1004.5 |
| 20260507173101 | 47 | 324 | 3.5 | 5.2 | 0.00 | 0.00 | 0.00 | 76 | 1004.6 |
| 20260507172543 | 46 | 324 | 2.6 | 4.3 | 0.00 | 0.00 | 0.00 | 80 | 1004.4 |
| 20260507172041 | 46 | 324 | 0.9 | 2.6 | 0.00 | 0.00 | 0.00 | 83 | 1004.6 |
| 20260507171601 | 45 | 0 | 0.0 | 1.7 | 0.00 | 0.00 | 0.00 | 85 | 1004.5 |
| 20260507171041 | 44 | 324 | 0.9 | 2.6 | 0.00 | 0.00 | 0.00 | 86 | 1004.7 |
| 20260507170541 | 44 | 324 | 1.7 | 2.6 | 0.00 | 0.00 | 0.00 | 88 | 1005.0 |
| 20260507170053 | 44 | 324 | 0.9 | 2.6 | 0.00 | 0.00 | 0.00 | 87 | 1005.2 |
| 20260507165541 | 44 | 324 | 1.7 | 2.6 | 0.00 | 0.00 | 0.00 | 88 | 1005.3 |
| 20260507165041 | 43 | 324 | 1.7 | 1.7 | 0.00 | 0.00 | 0.00 | 89 | 1005.2 |
| 20260507164550 | 42 | 324 | 0.0 | 1.7 | 0.00 | 0.00 | 0.00 | 88 | 1005.5 |
| 20260507164041 | 42 | 324 | 0.0 | 1.7 | 0.00 | 0.00 | 0.00 | 88 | 1005.5 |
| 20260507163542 | 42 | 324 | 0.9 | 3.5 | 0.00 | 0.00 | 0.00 | 87 | 1005.6 |
| 20260507163052 | 42 | 324 | 0.9 | 3.5 | 0.00 | 0.00 | 0.00 | 88 | 1005.6 |
| 20260507162541 | 42 | 324 | 2.6 | 7.0 | 0.00 | 0.00 | 0.00 | 89 | 1005.7 |
| 20260507162044 | 42 | 324 | 3.5 | 9.6 | 0.00 | 0.00 | 0.00 | 90 | 1005.7 |
| 20260507161602 | 43 | 324 | 5.2 | 9.6 | 0.00 | 0.00 | 0.00 | 89 | 1005.8 |
| 20260507161041 | 43 | 324 | 7.0 | 9.6 | 0.00 | 0.00 | 0.00 | 87 | 1005.8 |
| 20260507160541 | 43 | 324 | 5.2 | 7.0 | 0.00 | 0.00 | 0.00 | 87 | 1005.7 |
| 20260507160044 | 43 | 324 | 4.3 | 7.8 | 0.00 | 0.00 | 0.00 | 86 | 1005.6 |
| 20260507155540 | 43 | 324 | 6.1 | 7.8 | 0.00 | 0.00 | 0.00 | 86 | 1005.7 |
| 20260507155041 | 44 | 324 | 5.2 | 7.0 | 0.00 | 0.00 | 0.00 | 86 | 1005.9 |
| 20260507154552 | 43 | 324 | 3.5 | 6.1 | 0.00 | 0.00 | 0.00 | 87 | 1005.9 |
| 20260507154040 | 44 | 324 | 4.3 | 6.1 | 0.00 | 0.00 | 0.00 | 86 | 1005.8 |
| 20260507153546 | 44 | 324 | 3.5 | 6.1 | 0.00 | 0.00 | 0.00 | 85 | 1005.7 |
| 20260507153110 | 44 | 324 | 2.6 | 4.3 | 0.00 | 0.00 | 0.00 | 87 | 1005.8 |
| 20260507152543 | 44 | 324 | 1.7 | 4.3 | 0.00 | 0.00 | 0.00 | 86 | 1005.9 |
| 20260507152045 | 44 | 324 | 2.6 | 6.1 | 0.00 | 0.00 | 0.00 | 86 | 1005.9 |
| 20260507151556 | 44 | 324 | 3.5 | 6.1 | 0.00 | 0.00 | 0.00 | 86 | 1005.8 |
| 20260507151044 | 44 | 324 | 3.5 | 6.1 | 0.00 | 0.00 | 0.00 | 86 | 1005.9 |
| 20260507150545 | 43 | 324 | 0.9 | 1.7 | 0.00 | 0.00 | 0.00 | 86 | 1005.9 |
| 20260507150054 | 43 | 324 | 0.9 | 3.5 | 0.00 | 0.00 | 0.00 | 87 | 1005.8 |
| 20260507145544 | 43 | 324 | 1.7 | 3.5 | 0.00 | 0.00 | 0.00 | 87 | 1005.9 |
| 20260507145046 | 44 | 324 | 1.7 | 3.5 | 0.00 | 0.00 | 0.00 | 86 | 1006.0 |
| 20260507144552 | 44 | 324 | 1.7 | 3.5 | 0.00 | 0.00 | 0.00 | 86 | 1005.8 |
| 20260507144045 | 44 | 324 | 1.7 | 3.5 | 0.00 | 0.00 | 0.00 | 86 | 1006.0 |
| 20260507143543 | 43 | 324 | 1.7 | 3.5 | 0.00 | 0.00 | 0.00 | 87 | 1005.9 |
| 20260507143054 | 43 | 324 | 0.9 | 2.6 | 0.00 | 0.00 | 0.00 | 87 | 1006.0 |
| 20260507142544 | 43 | 324 | 0.9 | 0.9 | 0.00 | 0.00 | 0.00 | 87 | 1006.0 |
| 20260507142044 | 43 | 0 | 0.0 | 1.7 | 0.00 | 0.00 | 0.00 | 87 | 1006.2 |
| 20260507141555 | 43 | 324 | 0.9 | 2.6 | 0.00 | 0.00 | 0.00 | 85 | 1006.0 |
| 20260507141043 | 43 | 324 | 0.9 | 3.5 | 0.00 | 0.00 | 0.00 | 86 | 1006.0 |
| 20260507140545 | 43 | 324 | 1.7 | 3.5 | 0.00 | 0.00 | 0.00 | 85 | 1006.0 |
| 20260507140058 | 43 | 324 | 1.7 | 3.5 | 0.00 | 0.00 | 0.00 | 86 | 1006.0 |
| 20260507135549 | 43 | 324 | 2.6 | 3.5 | 0.00 | 0.00 | 0.00 | 87 | 1006.0 |
| 20260507135047 | 43 | 324 | 1.7 | 3.5 | 0.00 | 0.00 | 0.00 | 88 | 1006.1 |
| 20260507134553 | 43 | 324 | 0.9 | 1.7 | 0.00 | 0.00 | 0.00 | 88 | 1006.1 |
| 20260507134044 | 43 | 324 | 0.9 | 1.7 | 0.00 | 0.00 | 0.00 | 87 | 1006.1 |
| 20260507133544 | 43 | 324 | 0.9 | 2.6 | 0.00 | 0.00 | 0.00 | 86 | 1006.1 |
| 20260507133052 | 43 | 324 | 1.7 | 3.5 | 0.00 | 0.00 | 0.00 | 86 | 1006.1 |
| 20260507132543 | 43 | 324 | 1.7 | 4.3 | 0.00 | 0.00 | 0.00 | 87 | 1006.1 |
| 20260507132043 | 43 | 324 | 1.7 | 4.3 | 0.00 | 0.00 | 0.00 | 87 | 1006.2 |
| 20260507131552 | 43 | 324 | 3.5 | 7.0 | 0.00 | 0.00 | 0.00 | 87 | 1006.2 |
| 20260507131044 | 43 | 324 | 3.5 | 7.0 | 0.00 | 0.00 | 0.00 | 87 | 1006.3 |
| 20260507130544 | 43 | 324 | 3.5 | 6.1 | 0.00 | 0.00 | 0.00 | 87 | 1006.2 |
| 20260507130103 | 43 | 324 | 3.5 | 5.2 | 0.00 | 0.00 | 0.00 | 87 | 1006.1 |
| 20260507125543 | 42 | 324 | 2.6 | 5.2 | 0.00 | 0.00 | 0.00 | 88 | 1006.2 |
| 20260507125044 | 42 | 324 | 2.6 | 5.2 | 0.00 | 0.00 | 0.00 | 87 | 1006.2 |
| 20260507124615 | 42 | 324 | 3.5 | 6.1 | 0.00 | 0.00 | 0.00 | 87 | 1006.4 |
| 20260507124046 | 42 | 324 | 4.3 | 6.1 | 0.00 | 0.00 | 0.00 | 86 | 1006.3 |
| 20260507123546 | 42 | 324 | 4.3 | 6.1 | 0.00 | 0.00 | 0.00 | 88 | 1006.2 |
| 20260507123104 | 42 | 324 | 1.7 | 5.2 | 0.00 | 0.00 | 0.00 | 88 | 1006.4 |
| 20260507122545 | 42 | 0 | 0.0 | 0.9 | 0.00 | 0.00 | 0.00 | 87 | 1006.2 |
| 20260507122043 | 42 | 324 | 0.0 | 0.0 | 0.00 | 0.00 | 0.00 | 87 | 1006.2 |
| 20260507121600 | 42 | 0 | 0.0 | 1.7 | 0.00 | 0.00 | 0.00 | 87 | 1006.1 |
| 20260507121047 | 42 | 0 | 0.0 | 2.6 | 0.00 | 0.00 | 0.00 | 88 | 1006.3 |
| 20260507120545 | 41 | 324 | 1.7 | 3.5 | 0.00 | 0.00 | 0.00 | 88 | 1006.2 |
| 20260507120052 | 41 | 324 | 2.6 | 4.3 | 0.00 | 0.00 | 0.00 | 89 | 1006.2 |
| 20260507115543 | 41 | 324 | 2.6 | 4.3 | 0.00 | 0.00 | 0.00 | 88 | 1006.2 |
| 20260507115045 | 41 | 324 | 3.5 | 4.3 | 0.00 | 0.00 | 0.00 | 89 | 1006.4 |
| 20260507114553 | 41 | 324 | 3.5 | 4.3 | 0.00 | 0.00 | 0.00 | 89 | 1006.4 |
| 20260507114045 | 41 | 324 | 2.6 | 3.5 | 0.00 | 0.00 | 0.00 | 88 | 1006.3 |
| 20260507113547 | 41 | 324 | 1.7 | 5.2 | 0.00 | 0.00 | 0.00 | 88 | 1006.2 |
| 20260507113049 | 41 | 324 | 2.6 | 7.0 | 0.00 | 0.00 | 0.00 | 87 | 1006.4 |
| 20260507112549 | 41 | 324 | 3.5 | 7.0 | 0.00 | 0.00 | 0.00 | 87 | 1006.4 |
| 20260507112044 | 41 | 324 | 4.3 | 7.0 | 0.00 | 0.00 | 0.00 | 88 | 1006.5 |
| 20260507111552 | 41 | 324 | 3.5 | 5.2 | 0.00 | 0.00 | 0.00 | 87 | 1006.4 |
| 20260507111043 | 41 | 324 | 3.5 | 3.5 | 0.00 | 0.00 | 0.00 | 88 | 1006.7 |
| 20260507110543 | 41 | 324 | 2.6 | 3.5 | 0.00 | 0.00 | 0.00 | 89 | 1006.7 |
| 20260507110056 | 41 | 324 | 1.7 | 4.3 | 0.00 | 0.00 | 0.00 | 89 | 1006.7 |
| 20260507105544 | 41 | 324 | 2.6 | 4.3 | 0.00 | 0.00 | 0.00 | 89 | 1006.4 |
| 20260507105046 | 41 | 324 | 3.5 | 5.2 | 0.00 | 0.00 | 0.00 | 88 | 1006.5 |
| 20260507104555 | 41 | 324 | 3.5 | 5.2 | 0.00 | 0.00 | 0.00 | 88 | 1006.4 |
| 20260507104044 | 41 | 324 | 2.6 | 5.2 | 0.00 | 0.00 | 0.00 | 90 | 1006.4 |
| 20260507103544 | 41 | 324 | 3.5 | 5.2 | 0.00 | 0.00 | 0.00 | 88 | 1006.6 |
| 20260507103051 | 41 | 324 | 2.6 | 5.2 | 0.00 | 0.00 | 0.00 | 89 | 1006.4 |
| 20260507102545 | 41 | 324 | 2.6 | 5.2 | 0.00 | 0.00 | 0.00 | 89 | 1006.4 |
| 20260507102046 | 41 | 324 | 2.6 | 5.2 | 0.00 | 0.00 | 0.00 | 88 | 1006.2 |
| 20260507101559 | 40 | 324 | 2.6 | 5.2 | 0.00 | 0.00 | 0.00 | 87 | 1006.1 |
| 20260507101045 | 40 | 324 | 1.7 | 3.5 | 0.00 | 0.00 | 0.00 | 89 | 1006.0 |
| 20260507100545 | 40 | 0 | 0.0 | 1.7 | 0.00 | 0.00 | 0.00 | 88 | 1006.2 |
| 20260507100058 | 40 | 324 | 0.9 | 1.7 | 0.00 | 0.00 | 0.00 | 88 | 1006.4 |
| 20260507095546 | 40 | 324 | 0.0 | 0.0 | 0.00 | 0.00 | 0.00 | 88 | 1006.3 |
| 20260507095047 | 40 | 0 | 0.0 | 3.5 | 0.00 | 0.00 | 0.00 | 88 | 1006.2 |
| 20260507094551 | 41 | 0 | 0.0 | 3.5 | 0.00 | 0.00 | 0.00 | 88 | 1006.3 |
| 20260507094045 | 41 | 324 | 1.7 | 4.3 | 0.00 | 0.00 | 0.00 | 87 | 1006.1 |
| 20260507093545 | 41 | 324 | 2.6 | 4.3 | 0.00 | 0.00 | 0.00 | 87 | 1006.3 |
| 20260507093053 | 40 | 324 | 2.6 | 4.3 | 0.00 | 0.00 | 0.00 | 86 | 1006.2 |
| 20260507092542 | 40 | 324 | 2.6 | 4.3 | 0.00 | 0.00 | 0.00 | 87 | 1006.0 |
| 20260507092041 | 40 | 324 | 3.5 | 6.1 | 0.00 | 0.00 | 0.00 | 89 | 1006.1 |
| 20260507091550 | 40 | 324 | 3.5 | 6.1 | 0.00 | 0.00 | 0.00 | 89 | 1006.3 |
| 20260507091045 | 40 | 324 | 3.5 | 5.2 | 0.00 | 0.00 | 0.00 | 89 | 1006.3 |
| 20260507090543 | 40 | 324 | 2.6 | 3.5 | 0.00 | 0.00 | 0.00 | 90 | 1006.2 |
| 20260507090054 | 40 | 324 | 0.9 | 2.6 | 0.00 | 0.00 | 0.00 | 91 | 1005.9 |
| 20260507085542 | 40 | 324 | 0.9 | 2.6 | 0.00 | 0.00 | 0.00 | 91 | 1006.0 |
| 20260507085042 | 40 | 324 | 0.9 | 2.6 | 0.00 | 0.00 | 0.00 | 90 | 1005.8 |
| 20260507084557 | 40 | 324 | 0.0 | 1.7 | 0.00 | 0.00 | 0.00 | 91 | 1005.7 |
| 20260507084041 | 40 | 324 | 0.9 | 2.6 | 0.00 | 0.00 | 0.00 | 90 | 1005.9 |
| 20260507083541 | 40 | 324 | 1.7 | 2.6 | 0.00 | 0.00 | 0.00 | 90 | 1006.0 |
| 20260507083108 | 40 | 324 | 0.9 | 3.5 | 0.00 | 0.00 | 0.00 | 91 | 1006.1 |
| 20260507082541 | 40 | 324 | 1.7 | 3.5 | 0.00 | 0.00 | 0.00 | 92 | 1006.2 |
| 20260507082045 | 40 | 324 | 1.7 | 3.5 | 0.00 | 0.00 | 0.00 | 92 | 1006.1 |
| 20260507081604 | 40 | 324 | 2.6 | 3.5 | 0.00 | 0.00 | 0.00 | 91 | 1006.0 |
| 20260507081041 | 40 | 324 | 1.7 | 3.5 | 0.00 | 0.00 | 0.00 | 92 | 1006.1 |
| 20260507080544 | 40 | 324 | 1.7 | 3.5 | 0.00 | 0.00 | 0.00 | 92 | 1006.0 |
| 20260507080057 | 40 | 324 | 1.7 | 4.3 | 0.00 | 0.00 | 0.00 | 91 | 1005.9 |
| 20260507075547 | 40 | 324 | 1.7 | 5.2 | 0.00 | 0.00 | 0.00 | 91 | 1005.5 |
| 20260507075045 | 40 | 324 | 3.5 | 5.2 | 0.00 | 0.00 | 0.00 | 90 | 1005.8 |
| 20260507074548 | 40 | 324 | 3.5 | 5.2 | 0.00 | 0.00 | 0.00 | 90 | 1005.6 |
| 20260507074045 | 40 | 324 | 3.5 | 5.2 | 0.00 | 0.00 | 0.00 | 90 | 1005.8 |
| 20260507073544 | 39 | 324 | 1.7 | 3.5 | 0.00 | 0.00 | 0.00 | 92 | 1005.9 |
| 20260507073104 | 39 | 0 | 0.0 | 0.0 | 0.00 | 0.00 | 0.00 | 94 | 1005.6 |
| 20260507072543 | 40 | 0 | 0.0 | 1.7 | 0.00 | 0.00 | 0.00 | 93 | 1005.4 |
| 20260507072046 | 40 | 0 | 0.0 | 3.5 | 0.00 | 0.00 | 0.00 | 93 | 1005.5 |
| 20260507071557 | 40 | 324 | 0.9 | 3.5 | 0.00 | 0.00 | 0.00 | 92 | 1005.9 |
| 20260507071042 | 40 | 324 | 0.9 | 2.6 | 0.00 | 0.00 | 0.00 | 92 | 1005.9 |
| 20260507070543 | 40 | 324 | 0.0 | 1.7 | 0.00 | 0.00 | 0.00 | 93 | 1005.8 |
| 20260507065545 | 39 | 0 | 0.0 | 1.7 | 0.00 | 0.00 | 0.00 | 94 | 1005.6 |
| 20260507065041 | 39 | 0 | 0.0 | 1.7 | 0.00 | 0.00 | 0.00 | 93 | 1005.4 |
| 20260507064552 | 39 | 324 | 0.0 | 1.7 | 0.00 | 0.00 | 0.00 | 94 | 1005.3 |
| 20260507064043 | 39 | 0 | 0.0 | 1.7 | 0.00 | 0.00 | 0.00 | 94 | 1005.7 |
| 20260507063545 | 39 | 0 | 0.0 | 0.9 | 0.00 | 0.00 | 0.00 | 94 | 1005.7 |
| 20260507063052 | 40 | 0 | 0.0 | 0.9 | 0.00 | 0.00 | 0.00 | 94 | 1005.6 |
| 20260507062545 | 40 | 0 | 0.0 | 0.9 | 0.00 | 0.00 | 0.00 | 94 | 1005.3 |
| 20260507062045 | 40 | 0 | 0.0 | 0.9 | 0.00 | 0.00 | 0.00 | 94 | 1005.7 |
| 20260507061559 | 40 | 0 | 0.0 | 0.9 | 0.00 | 0.00 | 0.00 | 94 | 1005.7 |
| 20260507061041 | 40 | 0 | 0.0 | 0.9 | 0.00 | 0.00 | 0.00 | 95 | 1005.8 |
| 20260507060541 | 40 | 0 | 0.0 | 0.9 | 0.00 | 0.00 | 0.00 | 95 | 1005.8 |
| 20260507060057 | 40 | 0 | 0.0 | 1.7 | 0.00 | 0.00 | 0.00 | 95 | 1005.8 |
| 20260507055542 | 40 | 324 | 0.0 | 1.7 | 0.00 | 0.00 | 0.00 | 95 | 1005.8 |
| 20260507055042 | 40 | 324 | 0.0 | 1.7 | 0.00 | 0.00 | 0.00 | 95 | 1005.8 |
| 20260507054551 | 40 | 0 | 0.0 | 0.9 | 0.00 | 0.00 | 0.00 | 95 | 1005.8 |
| 20260507054043 | 40 | 324 | 0.0 | 1.7 | 0.00 | 0.00 | 0.00 | 95 | 1005.8 |
| 20260507053544 | 40 | 324 | 0.0 | 1.7 | 0.00 | 0.00 | 0.00 | 95 | 1005.8 |
| 20260507053051 | 41 | 324 | 0.9 | 1.7 | 0.00 | 0.00 | 0.00 | 95 | 1005.9 |
| 20260507052543 | 41 | 324 | 0.0 | 1.7 | 0.00 | 0.00 | 0.00 | 95 | 1005.9 |
| 20260507052043 | 41 | 324 | 0.0 | 4.3 | 0.00 | 0.00 | 0.00 | 94 | 1006.0 |
| 20260507051550 | 41 | 324 | 0.0 | 4.3 | 0.00 | 0.00 | 0.00 | 94 | 1005.9 |
| 20260507051042 | 41 | 324 | 0.9 | 4.3 | 0.00 | 0.00 | 0.00 | 94 | 1005.9 |
| 20260507050546 | 41 | 324 | 0.9 | 2.6 | 0.00 | 0.00 | 0.00 | 94 | 1005.7 |
| 20260507050052 | 41 | 0 | 0.9 | 1.7 | 0.00 | 0.00 | 0.00 | 94 | 1005.8 |
| 20260507045543 | 41 | 324 | 0.9 | 1.7 | 0.00 | 0.00 | 0.00 | 94 | 1005.8 |
| 20260507045043 | 41 | 0 | 0.0 | 1.7 | 0.00 | 0.00 | 0.00 | 94 | 1005.8 |
| 20260507044550 | 41 | 324 | 0.0 | 1.7 | 0.00 | 0.00 | 0.00 | 95 | 1005.9 |
| 20260507044044 | 42 | 324 | 0.9 | 1.7 | 0.00 | 0.00 | 0.00 | 95 | 1005.5 |
| 20260507043543 | 42 | 324 | 0.0 | 0.9 | 0.00 | 0.00 | 0.00 | 96 | 1005.8 |
| 20260507043049 | 42 | 0 | 0.0 | 1.7 | 0.00 | 0.00 | 0.00 | 95 | 1005.8 |
| 20260507042542 | 42 | 0 | 0.0 | 1.7 | 0.00 | 0.00 | 0.00 | 95 | 1005.7 |
| 20260507042041 | 42 | 0 | 0.0 | 1.7 | 0.00 | 0.00 | 0.00 | 95 | 1006.0 |
| 20260507041551 | 42 | 324 | 0.0 | 0.9 | 0.00 | 0.00 | 0.00 | 95 | 1006.1 |
| 20260507041043 | 43 | 0 | 0.0 | 1.7 | 0.00 | 0.00 | 0.00 | 95 | 1006.2 |
| 20260507040541 | 43 | 324 | 0.9 | 1.7 | 0.00 | 0.00 | 0.00 | 95 | 1006.1 |
| 20260507040049 | 43 | 324 | 0.9 | 1.7 | 0.00 | 0.00 | 0.00 | 95 | 1006.1 |
| 20260507035545 | 43 | 324 | 0.0 | 1.7 | 0.00 | 0.00 | 0.00 | 95 | 1006.2 |
| 20260507035045 | 43 | 324 | 0.9 | 1.7 | 0.00 | 0.00 | 0.00 | 95 | 1006.4 |
| 20260507034552 | 43 | 324 | 0.0 | 0.9 | 0.00 | 0.00 | 0.00 | 96 | 1006.3 |
| 20260507034044 | 43 | 324 | 0.0 | 0.9 | 0.00 | 0.00 | 0.00 | 96 | 1006.5 |
| 20260507033542 | 43 | 324 | 0.0 | 0.9 | 0.00 | 0.00 | 0.00 | 96 | 1006.4 |
| 20260507033050 | 43 | 0 | 0.0 | 0.0 | 0.00 | 0.00 | 0.00 | 96 | 1006.4 |
| 20260507032546 | 43 | 0 | 0.0 | 0.0 | 0.00 | 0.00 | 0.00 | 96 | 1006.4 |
| 20260507032041 | 43 | 0 | 0.0 | 0.9 | 0.00 | 0.00 | 0.00 | 96 | 1006.4 |
| 20260507031551 | 43 | 0 | 0.0 | 0.9 | 0.00 | 0.00 | 0.00 | 96 | 1006.5 |
| 20260507031044 | 43 | 0 | 0.0 | 0.9 | 0.00 | 0.00 | 0.00 | 96 | 1006.4 |
| 20260507030542 | 43 | 0 | 0.0 | 0.9 | 0.00 | 0.00 | 0.00 | 96 | 1006.4 |
| 20260507030059 | 43 | 324 | 0.9 | 1.7 | 0.00 | 0.00 | 0.00 | 96 | 1006.4 |
| 20260507025541 | 43 | 324 | 0.9 | 1.7 | 0.00 | 0.00 | 0.00 | 96 | 1006.5 |
| 20260507025050 | 43 | 324 | 0.9 | 1.7 | 0.00 | 0.00 | 0.00 | 96 | 1006.3 |
| 20260507024613 | 43 | 324 | 0.9 | 1.7 | 0.00 | 0.00 | 0.00 | 96 | 1006.2 |
| 20260507024045 | 43 | 324 | 0.9 | 1.7 | 0.00 | 0.00 | 0.00 | 96 | 1006.2 |
| 20260507023546 | 43 | 324 | 0.0 | 1.7 | 0.00 | 0.00 | 0.00 | 96 | 1006.1 |
| 20260507023051 | 43 | 324 | 0.9 | 1.7 | 0.00 | 0.00 | 0.00 | 96 | 1006.1 |
| 20260507022549 | 43 | 324 | 0.0 | 2.6 | 0.00 | 0.00 | 0.00 | 96 | 1006.3 |
| 20260507022041 | 43 | 324 | 0.9 | 2.6 | 0.00 | 0.00 | 0.00 | 96 | 1006.0 |
| 20260507021547 | 43 | 324 | 0.0 | 0.9 | 0.00 | 0.00 | 0.00 | 96 | 1006.0 |
| 20260507021046 | 43 | 0 | 0.0 | 0.0 | 0.00 | 0.00 | 0.00 | 96 | 1005.9 |
| 20260507020546 | 43 | 0 | 0.0 | 0.9 | 0.00 | 0.00 | 0.00 | 96 | 1005.8 |
| 20260507020106 | 43 | 0 | 0.0 | 0.9 | 0.00 | 0.00 | 0.00 | 96 | 1005.6 |
| 20260507015541 | 43 | 324 | 0.0 | 1.7 | 0.00 | 0.00 | 0.00 | 96 | 1005.6 |
| 20260507015041 | 43 | 324 | 0.0 | 3.5 | 0.00 | 0.00 | 0.00 | 96 | 1005.8 |
| 20260507014602 | 44 | 324 | 0.9 | 3.5 | 0.00 | 0.00 | 0.00 | 96 | 1005.9 |
| 20260507014041 | 43 | 324 | 1.7 | 3.5 | 0.00 | 0.00 | 0.00 | 96 | 1006.1 |
| 20260507013544 | 44 | 324 | 0.9 | 2.6 | 0.00 | 0.00 | 0.00 | 96 | 1005.8 |
| 20260507013051 | 44 | 324 | 0.9 | 2.6 | 0.00 | 0.00 | 0.00 | 96 | 1005.5 |
| 20260507012545 | 44 | 324 | 0.0 | 1.7 | 0.00 | 0.00 | 0.00 | 96 | 1005.3 |
| 20260507012045 | 44 | 324 | 0.9 | 1.7 | 0.00 | 0.00 | 0.00 | 96 | 1005.4 |
| 20260507011553 | 44 | 324 | 0.0 | 0.9 | 0.00 | 0.00 | 0.00 | 96 | 1005.4 |
| 20260507011042 | 44 | 324 | 0.0 | 1.7 | 0.00 | 0.00 | 0.00 | 96 | 1005.5 |
| 20260507010541 | 44 | 324 | 0.9 | 1.7 | 0.00 | 0.00 | 0.00 | 96 | 1005.5 |
| 20260507010049 | 44 | 324 | 0.9 | 1.7 | 0.00 | 0.00 | 0.00 | 96 | 1005.6 |
| 20260507005544 | 44 | 324 | 0.0 | 0.9 | 0.00 | 0.00 | 0.00 | 96 | 1005.6 |
| 20260507005043 | 44 | 324 | 0.0 | 0.9 | 0.00 | 0.00 | 0.00 | 96 | 1005.6 |